Regional Weather Roundup
Issued by NWS Sterling, VA

Home | Current Version | Previous Version | Text Only | Print | Product List | Glossary Off
Versions: 1 2 3 4 5 6 7 8 9 10 11 12 13 14 15 16 17 18 19 20 21 22 23 24 25 26 27

000
ASUS41 KLWX 252010
RWRLWX

REGIONAL WEATHER ROUNDUP
NATIONAL WEATHER SERVICE BALTIMORE MD/WASHINGTON DC
400 PM EDT SUN SEP 25 2016

Note: "FAIR" indicates few or no clouds below 12,000 feet
with no significant weather and/or obstructions to visibility.
 TC=TEMPERATURE CELSIUS

 * =Non NWS site. Station does not report precipitation (e.g. rain,
    snow, etc.), thunder, or fog.

DCZ001-MDZ009-015-VAZ040>042-051-053>054-252100-
WASHINGTON METRO

CITY           SKY/WX    TMP DP  RH WIND       PRES   REMARKS
WASHINGTON NAT PTSUNNY   74  46  36 E3        30.14F
DULLES         MOSUNNY   70  46  42 SW5       30.15F
ANDREWS AFB    SUNNY     72  47  42 VRB1      30.14F
FT BELVOIR     MOSUNNY   72  51  47 SW5       30.15F
QUANTICO         N/A     70  53  54 W5        30.17S
COLLEGE PARK*  SUNNY     72  45  37 NE3       30.14F
LEESBURG*      PTSUNNY   73  50  43 SW7       30.15F
MANASSAS*      CLOUDY    70  52  52 MISG      30.16F
GAITHERSBURG*  SUNNY     70  46  43 CALM      30.18F

$$

MDZ006>007-011-014-252100-
BALTIMORE METRO

CITY           SKY/WX    TMP DP  RH WIND       PRES   REMARKS
BWI AIRPORT    MOSUNNY   71  43  36 NE5       30.14F
MD SCIENCE CTR   N/A     70  43  37 MISG      30.15F
ANNAPOLIS      SUNNY     71  44  37 NW3       30.15F
FORT MEADE*    SUNNY     70  45  40 CALM      30.17F

$$

MDZ012-015-019>023-252100-
MARYLAND EASTERN SHORE

CITY           SKY/WX    TMP DP  RH WIND       PRES   REMARKS
OCEAN CITY     SUNNY     71  52  50 E9        30.14F
SALISBURY      SUNNY     73  49  42 CALM      30.13F
BAY BRIDGE AP* SUNNY     70  48  46 MISG      30.15F
CAMBRIDGE*     SUNNY     70  45  40 CALM      30.14F
EASTON*        MOSUNNY   73  45  35 NW9       30.18F

$$

MDZ017>025-252100-
SOUTHERN MARYLAND

CITY           SKY/WX    TMP DP  RH WIND       PRES   REMARKS
PATUXENT RIVER MOSUNNY   72  46  39 N5        30.15F
ST INIGOES     SUNNY     72  45  37 NE9       30.14F
LEONARDTOWN*   SUNNY     70  46  43 CALM      30.17S

$$

MDZ003>005-252100-
NORTH CENTRAL MARYLAND

CITY           SKY/WX    TMP DP  RH WIND       PRES   REMARKS
FREDERICK*     SUNNY     73  48  40 CALM      30.16F
HAGERSTOWN APT SUNNY     74  42  31 CALM      30.13F

$$

MDZ501>502-252100-
WESTERN MARYLAND

CITY           SKY/WX    TMP DP  RH WIND       PRES   REMARKS
OAKLAND*       SUNNY     70  36  28 CALM      30.17F
CUMBERLAND*    SUNNY     73  46  38 NE3       30.16F

$$

VAZ025>031-252100-
SHENANDOAH VALLEY

CITY           SKY/WX    TMP DP  RH WIND       PRES   REMARKS
WINCHESTER*    CLOUDY    70  50  49 S9        30.15F
FRONT ROYAL*   CLOUDY    66  52  59 CALM      30.15F
LURAY*         CLOUDY    64  55  72 CALM      30.16F
NEW MARKET*    CLOUDY   N/A N/A N/A CALM      30.15S
STAUNTON*      CLOUDY    64  59  82 SE3       30.17F
WAYNESBORO*    CLOUDY    65  58  78 SE5       30.16F

$$

WVZ021-048>050-054>055-252100-
EASTERN WEST VIRGINIA PANHANDLE

CITY           SKY/WX    TMP DP  RH WIND       PRES   REMARKS
MARTINSBURG    SUNNY     72  47  40 S3        30.13F
PETERSBURG*    SUNNY     79  55  43 CALM      30.09F

$$

VAZ036>039-050-252100-
CENTRAL FOOTHILLS

CITY           SKY/WX    TMP DP  RH WIND       PRES   REMARKS
CHARLOTTESVILL CLOUDY    66  56  70 N3        30.17F
CULPEPER*      CLOUDY    66  52  60 CALM      30.18F
ORANGE*          N/A     64  54  68 CALM      30.19S
GORDONSVILLE*  NOT AVBL
WARRENTON*     CLOUDY    69  43  39 CALM      30.17F

$$

VAZ055>057-252100-
NORTH AND CENTRAL PIEDMONT

CITY           SKY/WX    TMP DP  RH WIND       PRES   REMARKS
FREDERICKSBRG* CLOUDY    67  56  65 CALM      30.16S
STAFFORD*      CLOUDY    67  54  64 CALM      30.20F

$$

NCZ024-NYZ072-PAZ021-071-VAZ022-071-252100-
OTHER REGIONAL OBSERVATIONS

CITY           SKY/WX    TMP DP  RH WIND       PRES   REMARKS
NEW YORK CITY  SUNNY     68  35  29 VRB5      30.16F
PHILADELPHIA   MOSUNNY   72  41  32 N6        30.14F
PITTSBURGH     PTSUNNY   76  43  30 NW3       30.12F
ROANOKE        CLOUDY    69  64  84 SE10      30.16F
RICHMOND       CLOUDY    71  58  63 E5        30.14F
RALEIGH        CLOUDY    71  68  90 E6        30.13F FOG

$$

ANZ530>537-252100-
MARINE OBSERVATIONS

STATION/POSITION TIME  TEMP    WIND        PRES
                       AIR SEA DIR/SP/G
                 (UTC) (F)     (DEG/KT/KT) (MB)
THOMAS PT LIGHT  2000   67 76   30/  3/  5 1022.4F
BALT KEY BRIDGE  1948   66     130/  6/  9 1021.0F
COVE POINT       1948   67     360/  6/  8 1021.6F
LEWISETTA        1948   69 75  110/  4/  6 1020.6F
SOLOMONS ISLAND  1942   69 77   40/  3/  8   N/A
PINEY POINT      1948           CALM  /  4   N/A

$$





USA.gov is the U.S. government's official web portal to all federal, state and local government web resources and services.